{"data":{"norad_id":64952,"intl_designator":"2025-158W","name":"STARLINK-34744","alt_names":[],"object_type":"PAYLOAD","status":"ACTIVE","operator":null,"country":"US","launch_date":"2025-07-27","launch_site_code":"AFWTR","launch_vehicle":null,"mission":null,"orbit_class":"UNKNOWN","rcs_meters":null,"size_class":null,"mass_kg":null,"dimensions":null,"purposes":["comms"],"wikipedia_slug":null,"has_3d_model":false,"image_url":null,"decayed_at":null,"tle_current":{"epoch":"2026-05-25T03:09:09.827136Z","epoch_age_seconds":59626,"freshness":"FRESH","line1":"1 64952U 25158W   26145.13136374  .00004682  00000+0  32827-3 0  9997","line2":"2 64952  97.4482   8.9788 0002477  85.8827 274.2683 15.05659365 46850","mean_motion":15.05659365,"eccentricity":0.0002477,"inclination_deg":97.4482,"raan_deg":8.9788,"arg_perigee_deg":85.8827,"mean_anomaly_deg":274.2683,"bstar":0.00032827,"rev_number":4685,"period_min":95.639162049113,"perigee_km":547.76645664666,"apogee_km":551.19839931128,"semimajor_km":6927.619427979,"source":"CELESTRAK","updated_at":"2026-05-25T13:38:20.635498Z"}}}